EDT,Max TemperatureF,Mean TemperatureF,Min TemperatureF,Max Dew PointF,MeanDew PointF,Min DewpointF,Max Humidity, Mean Humidity, Min Humidity, Max Sea Level PressureIn, Mean Sea Level PressureIn, Min Sea Level PressureIn, Max VisibilityMiles, Mean VisibilityMiles, Min VisibilityMiles, Max Wind SpeedMPH, Mean Wind SpeedMPH, Max Gust SpeedMPH,PrecipitationIn, CloudCover, Events, WindDirDegrees
2011-9-1,77,70,63,65,62,56,87,75,63,30.23,30.15,30.07,10,9,2,12,4,14,0.14,4,Rain,151
2011-9-2,77,72,67,65,62,60,81,73,64,30.10,30.07,30.05,10,10,9,12,5,14,0.00,7,,130
2011-9-3,80,75,69,71,67,64,84,79,74,30.05,29.99,29.94,10,8,6,9,4,13,0.00,3,,160
2011-9-4,87,78,69,72,69,66,97,76,55,29.95,29.88,29.81,10,5,0,14,3,17,T,3,Fog-Rain-Thunderstorm,209
2011-9-5,74,72,69,68,65,59,97,85,73,29.90,29.82,29.76,10,5,1,7,2,8,0.02,8,Rain,342
2011-9-6,62,61,60,59,58,57,97,91,84,30.06,30.00,29.90,10,6,2,14,9,17,0.57,8,Rain,23
2011-9-7,69,65,60,66,62,57,100,94,87,30.01,29.98,29.94,10,6,2,13,8,17,0.56,8,Rain,356
2011-9-8,73,69,65,68,66,64,100,92,84,29.99,29.94,29.91,10,5,0,14,5,20,0.15,8,Fog-Rain,18
2011-9-9,75,72,69,72,68,64,100,91,82,29.92,29.88,29.84,10,4,0,15,5,16,1.67,7,Fog-Rain-Thunderstorm,15
2011-9-10,80,72,64,67,65,61,100,79,58,30.04,29.94,29.89,10,6,0,14,4,16,0.00,6,Fog,296
2011-9-11,80,71,61,64,61,57,100,75,49,30.11,30.06,29.99,10,5,0,8,2,15,0.00,5,Fog-Rain-Thunderstorm,215
2011-9-12,79,69,59,62,60,57,100,76,52,30.12,30.06,30.01,10,4,0,9,4,13,0.01,2,Fog,143
2011-9-13,83,72,61,63,60,58,97,70,43,30.04,29.99,29.94,10,9,5,13,6,16,0.00,0,,190
2011-9-14,86,76,65,66,63,60,87,68,48,29.99,29.95,29.87,10,8,1,10,5,13,0.00,2,Rain-Thunderstorm,166
2011-9-15,65,60,55,63,59,39,100,86,72,30.26,29.97,29.89,10,5,0,24,8,32,0.90,6,Fog-Rain-Thunderstorm,350
2011-9-16,63,54,44,47,41,38,83,66,48,30.40,30.36,30.28,10,10,10,13,5,16,0.00,0,,352
2011-9-17,62,55,48,50,46,42,93,73,52,30.45,30.41,30.37,10,10,10,12,4,15,T,4,,74
2011-9-18,68,59,50,51,48,43,93,68,42,30.45,30.39,30.34,10,10,9,12,6,15,0.00,4,,68
2011-9-19,65,61,56,56,52,49,80,72,63,30.33,30.25,30.14,10,10,10,14,6,18,0.00,8,,152
2011-9-20,74,67,60,63,60,55,97,81,64,30.18,30.13,30.09,10,9,6,13,6,18,0.06,6,Rain,178
2011-9-21,74,69,63,67,64,62,93,81,68,30.21,30.16,30.11,10,6,1,15,6,18,0.00,7,Rain,138
2011-9-22,79,73,67,67,66,62,100,79,58,30.14,30.11,30.07,10,7,2,9,4,12,0.01,5,,174
2011-9-23,73,69,65,70,67,63,100,92,84,30.13,29.98,29.89,10,5,0,10,3,13,0.09,6,Fog-Rain,174
2011-9-24,76,68,60,66,62,58,100,80,60,30.12,30.05,29.96,10,8,0,7,3,10,0.00,4,Fog,234
2011-9-25,78,73,67,67,65,64,93,81,69,30.14,30.09,30.03,10,7,2,7,2,9,0.00,6,,84
2011-9-26,79,73,66,67,66,64,93,78,62,30.03,29.99,29.94,10,9,5,13,5,16,0.00,5,,155
2011-9-27,78,74,69,70,68,66,97,86,74,29.94,29.89,29.85,10,9,3,17,8,22,0.12,7,Rain-Thunderstorm,137
2011-9-28,76,71,65,67,65,63,93,81,69,29.93,29.86,29.81,10,8,4,13,4,17,0.04,5,Rain,155
2011-9-29,72,67,61,63,58,49,100,74,47,29.82,29.77,29.71,10,5,0,22,6,31,0.01,4,Fog,243
2011-9-30,68,63,58,52,48,44,80,64,48,29.76,29.74,29.70,10,10,10,21,7,29,0.00,4,,247